Location: Hopkins Observatory
(42.6965°N, 73.1843°W)
Time: 16:17:25
(UTC-04:00)

Amateur Radio Satellites - All Passes

Search period start: 03 July 2015 15:47
Search period end: 04 July 2015 15:47
Location: Hopkins Observatory, 42.6965°N, 73.1843°W

Satellite Date Start Highest point End Downlink Frequencies (MHz)
Time Altitude Azimuth
AIST 2 03 Jul 15:48:08 15:48:22 10° 32° (NNE) 15:48:44 435.215
Gurwin Techsat 1B 03 Jul 15:50:27 15:54:05 18° 270° (W) 15:57:32 435.225
AO-7 03 Jul 15:53:17 16:01:38 89° 73° (ENE) 16:10:05 29.400- 29.500
SWISSCUBE 03 Jul 15:56:01 15:59:41 21° 295° (WNW) 16:03:13 437.505
ITUPSAT 1 03 Jul 16:00:44 16:04:24 22° 295° (WNW) 16:07:58 437.325
BEESAT 3 03 Jul 16:02:20 16:06:12 40° 50° (NE) 16:10:00 437.485
ITAMSAT 1 03 Jul 16:04:39 16:07:15 13° 273° (W) 16:09:33 435.822/435.867
YUBILEINY 03 Jul 16:10:58 16:18:56 40° 273° (W) 16:26:47 435.215
BEESAT 2 03 Jul 16:12:50 16:16:44 41° 50° (NE) 16:20:35 435.950
STARS 03 Jul 16:31:10 16:35:34 73° 284° (WNW) 16:39:54 437.465
Cosmos 2491 03 Jul 16:31:24 16:40:07 59° 284° (WNW) 16:48:48 435.465 / 435.565
JAS-2 03 Jul 16:32:42 16:37:10 28° 267° (W) 16:41:43 435.910
SO-50 03 Jul 16:37:39 16:41:32 27° 113° (ESE) 16:45:37 436.795
O/OREOS (USA 219) 03 Jul 16:44:57 16:48:37 24° 56° (NE) 16:52:20 437.305
CUTE-I 03 Jul 16:51:07 16:54:04 16° 60° (ENE) 16:57:15 437.470
PCSat 03 Jul 16:51:58 16:57:20 61° 304° (WNW) 17:02:44 145.827
AIST 1 03 Jul 16:53:50 16:57:46 30° 286° (WNW) 17:01:40
Cosmos 2504 03 Jul 17:11:34 17:18:59 69° 80° (E) 17:26:59 435.465 / 435.565
KKS-1 03 Jul 17:13:46 17:16:49 18° 295° (WNW) 17:19:45 437.445
HORYU 2 03 Jul 17:15:05 17:17:15 13° 271° (W) 17:19:12 437.375
MOZHAYETS 4 03 Jul 17:21:35 17:26:14 66° 101° (E) 17:30:51
Cubesat XI-IV 03 Jul 17:23:07 17:27:37 29° 66° (ENE) 17:32:14 437.490
AIST 2 03 Jul 17:23:46 17:27:56 56° 53° (NE) 17:32:00 435.215
BEESAT 3 03 Jul 17:40:54 17:43:54 20° 247° (WSW) 17:46:47 437.485
CUBESAT XI-V 03 Jul 17:48:19 17:48:53 10° 85° (E) 17:49:47 437.345
AO-7 03 Jul 17:49:50 17:55:39 19° 272° (W) 18:01:04 29.400- 29.500
BEESAT 2 03 Jul 17:51:32 17:54:33 20° 247° (WSW) 17:57:26 435.950
SO-50 03 Jul 18:17:22 18:21:54 42° 311° (NW) 18:26:34 436.795
O/OREOS (USA 219) 03 Jul 18:23:59 18:28:10 37° 254° (WSW) 18:32:19 437.305
CUTE-I 03 Jul 18:28:11 18:33:33 80° 256° (WSW) 18:38:59 437.470
Cosmos 2491 03 Jul 18:36:04 18:39:29 12° 309° (NW) 18:42:16 435.465 / 435.565
BRITE-PL 03 Jul 18:36:21 18:39:39 17° 65° (ENE) 18:43:02 437.365/2234.400
DANDE 03 Jul 18:37:16 18:37:43 10° 64° (ENE) 18:38:17 436.750
PCSat 03 Jul 18:39:22 18:41:59 13° 326° (NW) 18:44:25 145.827
GONETS M04 03 Jul 18:50:49 18:56:36 20° 59° (ENE) 19:02:46
MOZHAYETS 4 03 Jul 19:00:21 19:02:58 15° 297° (WNW) 19:05:24
Cubesat XI-IV 03 Jul 19:02:35 19:07:36 39° 263° (W) 19:12:38 437.490
AIST 2 03 Jul 19:03:38 19:06:05 15° 249° (WSW) 19:08:22 435.215
Cosmos 2504 03 Jul 19:04:58 19:10:41 23° 276° (W) 19:16:24 435.465 / 435.565
DOVE 4 03 Jul 19:08:18 19:09:43 11° 63° (ENE) 19:11:21 437.250
HO-68 03 Jul 19:18:15 19:24:02 28° 60° (ENE) 19:29:58 435.675
CUSAT 1 03 Jul 19:21:05 19:23:48 88° 262° (W) 19:26:23 437.405
CUBESAT XI-V 03 Jul 19:22:20 19:27:03 82° 286° (WNW) 19:31:43 437.345
COMPASS 1 03 Jul 19:52:27 19:54:54 16° 65° (ENE) 19:57:30 437.405
STRAND 1 03 Jul 19:52:42 19:57:50 66° 101° (E) 20:02:57 437.568
GOMX 1 03 Jul 19:53:11 19:58:10 50° 73° (ENE) 20:02:52 467.674
CUTE 1.7 + AOD 2 03 Jul 19:58:05 20:01:36 27° 69° (ENE) 20:05:13 437.475
CINEMA 3 03 Jul 19:59:54 20:02:36 16° 66° (ENE) 20:05:25 145.822/145.860
CANX-2 03 Jul 20:01:03 20:04:47 32° 70° (ENE) 20:08:35 2200.000
PRISM 03 Jul 20:02:09 20:06:23 84° 103° (ESE) 20:10:34 437.425
SO-50 03 Jul 20:02:58 20:03:50 10° 334° (NNW) 20:04:33 436.795
BRITE-PL 03 Jul 20:12:14 20:17:45 70° 258° (WSW) 20:22:56 437.365/2234.400
DANDE 03 Jul 20:18:56 20:21:02 18° 269° (W) 20:22:57 436.750
AUBIESAT-1 03 Jul 20:39:44 20:41:44 13° 96° (E) 20:43:59 437.475
DOVE 4 03 Jul 20:42:02 20:46:58 86° 253° (WSW) 20:51:38 437.250
GONETS M04 03 Jul 20:46:12 20:54:57 89° 82° (E) 21:03:39
SEEDS 03 Jul 20:47:12 20:51:22 77° 76° (ENE) 20:55:34 437.485
CUBEBUG 2 03 Jul 20:53:39 20:57:16 27° 69° (ENE) 21:00:51 437.445
ZACube-1 03 Jul 21:00:38 21:03:39 20° 67° (ENE) 21:06:46 437.345
AAUSAT CUBESAT 2 03 Jul 21:00:43 21:04:50 74° 76° (ENE) 21:09:00 437.432
HO-68 03 Jul 21:04:17 21:11:21 62° 258° (WSW) 21:18:27 435.675
Oscar 11 03 Jul 21:10:21 21:14:24 43° 72° (ENE) 21:18:30 145.826/435.025
M-CUBED/EXP-1 PRIME 03 Jul 21:11:37 21:15:25 33° 102° (ESE) 21:19:31 437.505
DELFI C3 03 Jul 21:23:03 21:26:47 39° 72° (ENE) 21:30:34 145.870
COMPASS 1 03 Jul 21:26:12 21:30:13 47° 261° (W) 21:34:16 437.405
HUMSAT D 03 Jul 21:27:30 21:30:05 17° 66° (ENE) 21:32:47 437.325/437.525
GOMX 1 03 Jul 21:32:43 21:36:32 20° 268° (W) 21:40:02 467.674
STRAND 1 03 Jul 21:33:11 21:36:34 17° 298° (WNW) 21:39:46 437.568
CUTE 1.7 + AOD 2 03 Jul 21:33:54 21:37:30 26° 266° (W) 21:41:02 437.475
Cosmos 2499 03 Jul 21:34:55 21:42:15 43° 73° (ENE) 21:50:10 435.465 / 435.565
CINEMA 3 03 Jul 21:35:05 21:39:31 51° 261° (W) 21:43:46 145.822/145.860
FUNcube-1 03 Jul 21:36:05 21:40:06 46° 73° (ENE) 21:44:06 145.935
CANX-2 03 Jul 21:37:27 21:40:48 22° 267° (W) 21:44:03 2200.000
PRISM 03 Jul 21:40:59 21:41:13 10° 299° (WNW) 21:41:15 437.425
UWE-3 03 Jul 21:45:55 21:50:11 80° 78° (ENE) 21:54:23 435.000/436.395/437.385
ESTCUBE 1 03 Jul 21:50:57 21:51:56 11° 61° (ENE) 21:53:10 437.505/2401.250
VELOX 1 03 Jul 22:08:55 22:12:27 24° 67° (ENE) 22:16:05 145.980
AUBIESAT-1 03 Jul 22:12:38 22:16:47 62° 291° (WNW) 22:21:12 437.475
DX 1 03 Jul 22:20:50 22:25:08 57° 73° (ENE) 22:29:27 434.975-435.025
CUBEBUG 2 03 Jul 22:30:15 22:33:56 26° 265° (W) 22:37:30 437.445
ZACube-1 03 Jul 22:35:55 22:39:50 36° 263° (W) 22:43:41 437.345
UKube-1 03 Jul 22:43:02 22:47:23 89° 254° (WSW) 22:51:46 .
GONETS M04 03 Jul 22:45:03 22:50:44 19° 281° (W) 22:55:56
M-CUBED/EXP-1 PRIME 03 Jul 22:46:40 22:50:08 25° 296° (WNW) 22:53:42 437.505
Oscar 11 03 Jul 22:47:55 22:50:50 17° 269° (W) 22:53:38 145.826/435.025
ANTELSAT 03 Jul 22:50:58 22:54:44 28° 95° (E) 22:58:37 437.575/2403.000
AISAT 03 Jul 22:54:40 22:59:08 74° 76° (ENE) 23:03:37 437.250
DELFI C3 03 Jul 22:59:28 23:02:06 16° 269° (W) 23:04:35 145.870
HUMSAT D 03 Jul 23:01:37 23:05:33 42° 262° (W) 23:09:27 437.325/437.525
TIGRISAT 03 Jul 23:03:31 23:07:34 37° 97° (E) 23:11:41 435.000
QB50P1 03 Jul 23:04:34 23:07:03 16° 90° (E) 23:09:43 145.935-145.965
50 SAT 03 Jul 23:08:16 23:12:05 68° 258° (WSW) 23:15:55 437.505
FUNcube-1 03 Jul 23:14:11 23:16:43 15° 270° (W) 23:19:06 145.935
CUBEBUG 1 03 Jul 23:15:17 23:19:40 65° 74° (ENE) 23:24:06 437.445
NANOSAT C BR1 03 Jul 23:18:32 23:21:47 22° 93° (E) 23:25:06 145.865
ESTCUBE 1 03 Jul 23:23:38 23:28:10 88° 257° (WSW) 23:32:45 437.505/2401.250
DUCHIFAT 1 03 Jul 23:25:36 23:29:05 25° 94° (E) 23:32:37 145.980
Cosmos 2499 03 Jul 23:28:12 23:35:24 40° 271° (W) 23:42:57 435.465 / 435.565
POLYITAN 1 03 Jul 23:29:27 23:33:09 30° 96° (E) 23:36:52 437.675
TISAT 1 03 Jul 23:31:05 23:34:01 19° 66° (ENE) 23:37:04 437.305
UNISAT 6 03 Jul 23:42:41 23:47:04 80° 284° (WNW) 23:51:32 437.425
VELOX 1 03 Jul 23:44:47 23:48:52 34° 263° (W) 23:52:56 145.980
BUGSAT 1 03 Jul 23:46:16 23:49:45 27° 95° (E) 23:53:15 437.445
PCSat 03 Jul 23:56:22 00:00:36 23° 43° (NE) 00:04:54 145.827
QB50P2 03 Jul 23:58:57 00:03:10 65° 101° (E) 00:07:20 145.880/145.840
DX 1 03 Jul 23:59:30 00:01:49 14° 271° (W) 00:03:56 434.975-435.025
POPSAT HIP 1 03 Jul 23:59:54 00:04:05 65° 100° (E) 00:08:16 437.405
SPROUT 04 Jul 00:20:26 00:24:46 87° 255° (WSW) 00:29:06 437.525
ANTELSAT 04 Jul 00:27:44 00:31:29 28° 291° (WNW) 00:35:13 437.575/2403.000
AISAT 04 Jul 00:35:05 00:36:19 11° 273° (W) 00:37:17 437.250
QB50P1 04 Jul 00:39:11 00:43:13 45° 288° (WNW) 00:47:13 145.935-145.965
TIGRISAT 04 Jul 00:40:46 00:44:07 22° 293° (WNW) 00:47:27 435.000
Cosmos 2491 04 Jul 00:45:57 00:50:38 16° 55° (NE) 00:55:49 435.465 / 435.565
NANOSAT C BR1 04 Jul 00:53:55 00:57:42 32° 290° (WNW) 01:01:24 145.865
CUBEBUG 1 04 Jul 00:54:33 00:56:32 12° 272° (W) 00:58:17 437.445
DUCHIFAT 1 04 Jul 01:01:17 01:04:53 28° 291° (WNW) 01:08:24 145.980
POLYITAN 1 04 Jul 01:05:31 01:08:57 24° 292° (WNW) 01:12:18 437.675
TISAT 1 04 Jul 01:05:31 01:09:32 40° 262° (W) 01:13:33 437.305
SO-50 04 Jul 01:07:42 01:12:12 33° 45° (NE) 01:16:41 436.795
BEESAT 04 Jul 01:09:31 01:13:52 37° 69° (ENE) 01:18:17 436.000
RS-15 04 Jul 01:13:45 01:21:52 26° 104° (ESE) 01:30:36 29.354- 29.394
BUGSAT 1 04 Jul 01:21:49 01:25:08 24° 292° (WNW) 01:28:22 437.445
SWISSCUBE 04 Jul 01:24:37 01:29:18 57° 72° (ENE) 01:34:01 437.505
ITUPSAT 1 04 Jul 01:29:34 01:34:15 57° 72° (ENE) 01:38:59 437.325
QB50P2 04 Jul 01:36:43 01:38:34 12° 297° (WNW) 01:40:15 145.880/145.840
POPSAT HIP 1 04 Jul 01:37:37 01:39:30 12° 297° (WNW) 01:41:11 437.405
PCSat 04 Jul 01:39:08 01:44:31 65° 244° (WSW) 01:49:52 145.827
STARS 04 Jul 01:55:29 01:56:59 12° 62° (ENE) 01:58:42 437.465
Oscar 19 04 Jul 02:23:56 02:29:05 73° 103° (ESE) 02:34:13 437.125/150
Gurwin Techsat 1B 04 Jul 02:24:32 02:28:36 23° 92° (E) 02:32:47 435.225
ITAMSAT 1 04 Jul 02:34:30 02:38:47 26° 93° (E) 02:43:09 435.822/435.867
KKS-1 04 Jul 02:34:57 02:39:13 47° 72° (ENE) 02:43:31 437.445
Cosmos 2491 04 Jul 02:40:41 02:49:28 74° 80° (E) 02:58:11 435.465 / 435.565
BEESAT 04 Jul 02:47:54 02:51:50 24° 267° (W) 02:55:41 436.000
SO-50 04 Jul 02:48:14 02:52:49 37° 244° (WSW) 02:57:14 436.795
AIST 1 04 Jul 02:59:34 03:03:57 70° 80° (E) 03:08:15
SWISSCUBE 04 Jul 03:04:32 03:07:35 16° 270° (W) 03:10:26 437.505
ITUPSAT 1 04 Jul 03:09:33 03:12:34 16° 270° (W) 03:15:26 437.325
YUBILEINY 04 Jul 03:15:35 03:23:51 53° 90° (E) 03:32:13 435.215
RS-15 04 Jul 03:22:07 03:33:04 83° 305° (NW) 03:44:26 29.354- 29.394
STARS 04 Jul 03:28:29 03:32:53 76° 257° (WSW) 03:37:18 437.465
HORYU 2 04 Jul 03:28:47 03:29:47 11° 87° (E) 03:31:03 437.375
JAS-2 04 Jul 03:37:59 03:43:57 36° 96° (E) 03:50:38 435.910
AO-7 04 Jul 03:54:49 04:01:39 28° 93° (E) 04:08:42 29.400- 29.500
Gurwin Techsat 1B 04 Jul 04:03:46 04:08:52 48° 290° (WNW) 04:13:57 435.225
Oscar 19 04 Jul 04:04:51 04:07:54 16° 299° (WNW) 04:10:45 437.125/150
KKS-1 04 Jul 04:13:10 04:16:09 17° 269° (W) 04:18:59 437.445
ITAMSAT 1 04 Jul 04:13:34 04:18:28 41° 291° (WNW) 04:23:18 435.822/435.867
MOZHAYETS 4 04 Jul 04:24:04 04:28:35 67° 75° (ENE) 04:33:11
Cosmos 2491 04 Jul 04:38:54 04:45:33 24° 279° (W) 04:51:49 435.465 / 435.565
AIST 1 04 Jul 04:40:35 04:41:02 10° 276° (W) 04:41:12
CUBESAT XI-V 04 Jul 04:52:00 04:53:57 13° 62° (ENE) 04:56:08 437.345
HORYU 2 04 Jul 05:02:33 05:07:01 74° 285° (WNW) 05:11:28 437.375
YUBILEINY 04 Jul 05:13:12 05:21:03 36° 291° (WNW) 05:28:49 435.215
JAS-2 04 Jul 05:22:57 05:29:07 45° 290° (WNW) 05:35:55 435.910
STRAND 1 04 Jul 05:33:16 05:35:49 14° 60° (ENE) 05:38:35 437.568
RS-15 04 Jul 05:37:49 05:47:29 32° 333° (NNW) 05:57:20 29.354- 29.394
Cosmos 2504 04 Jul 05:43:43 05:50:17 48° 91° (E) 05:56:54 435.465 / 435.565
AO-7 04 Jul 05:46:49 05:55:07 67° 293° (WNW) 06:03:20 29.400- 29.500
MOZHAYETS 4 04 Jul 06:04:19 06:06:23 12° 273° (W) 06:08:13
CUBESAT XI-V 04 Jul 06:26:06 06:30:49 79° 259° (W) 06:35:34 437.345
CUTE-I 04 Jul 06:44:45 06:49:45 39° 97° (E) 06:54:45 437.470
CUSAT 1 04 Jul 06:47:10 06:50:01 14° 91° (E) 06:52:53 437.405
PRISM 04 Jul 06:52:35 06:56:43 67° 74° (ENE) 07:00:54 437.425
O/OREOS (USA 219) 04 Jul 06:58:33 07:01:55 22° 103° (ESE) 07:05:24 437.305
STRAND 1 04 Jul 07:09:15 07:14:25 82° 258° (WSW) 07:19:36 437.568
Cubesat XI-IV 04 Jul 07:18:35 07:23:59 79° 102° (ESE) 07:29:21 437.490
AUBIESAT-1 04 Jul 07:28:52 07:30:45 15° 60° (ENE) 07:32:48 437.475
BEESAT 3 04 Jul 07:32:51 07:36:50 59° 120° (ESE) 07:40:54 437.485
Cosmos 2504 04 Jul 07:36:52 07:42:49 29° 291° (WNW) 07:48:39 435.465 / 435.565
AO-7 04 Jul 07:41:34 07:46:31 17° 313° (NW) 07:51:08 29.400- 29.500
DANDE 04 Jul 07:44:19 07:50:49 37° 95° (E) 07:56:04 436.750
BEESAT 2 04 Jul 07:44:23 07:48:25 61° 120° (ESE) 07:52:31 435.950
ISS 04 Jul 07:49:50 07:52:18 20° 135° (SE) 07:54:49 145.825
GONETS M04 04 Jul 07:54:32 08:00:21 21° 80° (E) 08:06:35
RS-15 04 Jul 07:55:57 08:04:39 24° 8° (N) 08:13:44 29.354- 29.394
GOMX 1 04 Jul 07:57:12 07:57:56 11° 87° (E) 07:58:56 467.674
M-CUBED/EXP-1 PRIME 04 Jul 08:01:21 08:04:28 41° 67° (ENE) 08:07:44 437.505
VERMONT LUNAR 04 Jul 08:17:00 08:19:43 28° 161° (SSE) 08:22:29 437.305
BRITE-PL 04 Jul 08:17:18 08:21:10 32° 95° (E) 08:24:56 437.365/2234.400
CUTE-I 04 Jul 08:25:06 08:29:43 29° 294° (WNW) 08:34:12 437.470
CUSAT 1 04 Jul 08:25:55 08:32:32 80° 279° (W) 08:37:30 437.405
PHONESAT 2.4 04 Jul 08:31:01 08:31:47 11° 148° (SSE) 08:32:39 2401.200-2431.200
PRISM 04 Jul 08:31:36 08:32:42 11° 272° (W) 08:33:32 437.425
HO-68 04 Jul 08:31:45 08:37:22 25° 92° (E) 08:43:11 435.675
SEEDS 04 Jul 08:32:35 08:34:17 12° 88° (E) 08:36:14 437.485
O/OREOS (USA 219) 04 Jul 08:36:59 08:41:08 37° 300° (WNW) 08:45:18 437.305
DOVE 4 04 Jul 08:41:14 08:44:21 21° 93° (E) 08:47:32 437.250
AAUSAT CUBESAT 2 04 Jul 08:45:08 08:46:20 11° 87° (E) 08:47:47 437.432
AIST 2 04 Jul 09:00:10 09:04:26 86° 303° (WNW) 09:08:44 435.215
Cubesat XI-IV 04 Jul 09:00:18 09:03:30 16° 300° (WNW) 09:06:28 437.490
AUBIESAT-1 04 Jul 09:02:14 09:05:17 33° 258° (WSW) 09:08:26 437.475
COMPASS 1 04 Jul 09:09:03 09:12:32 25° 94° (E) 09:16:05 437.405
UNISAT 6 04 Jul 09:10:14 09:10:28 10° 62° (ENE) 09:10:57 437.425
BEESAT 3 04 Jul 09:12:18 09:15:10 18° 319° (NW) 09:18:00 437.485
CUTE 1.7 + AOD 2 04 Jul 09:17:27 09:21:37 48° 99° (E) 09:25:47 437.475
CANX-2 04 Jul 09:20:43 09:24:57 58° 100° (E) 09:29:12 2200.000
BEESAT 2 04 Jul 09:24:01 09:26:54 18° 319° (NW) 09:29:42 435.950
ISS 04 Jul 09:25:20 09:28:30 51° 331° (NNW) 09:31:41 145.825
DANDE 04 Jul 09:27:23 09:33:59 37° 285° (WNW) 09:39:07 436.750
CINEMA 3 04 Jul 09:29:08 09:32:51 31° 96° (E) 09:36:40 145.822/145.860
GOMX 1 04 Jul 09:32:30 09:36:42 63° 286° (WNW) 09:40:46 467.674
UWE-3 04 Jul 09:36:11 09:38:27 14° 90° (E) 09:40:55 435.000/436.395/437.385
M-CUBED/EXP-1 PRIME 04 Jul 09:38:46 09:39:41 11° 266° (W) 09:40:25 437.505
GONETS M04 04 Jul 09:47:28 09:56:17 82° 278° (W) 10:05:06
ANTELSAT 04 Jul 09:51:04 09:54:40 27° 69° (ENE) 09:58:18 437.575/2403.000
VERMONT LUNAR 04 Jul 09:53:19 09:56:23 56° 177° (S) 09:59:30 437.305
BRITE-PL 04 Jul 09:56:11 09:59:36 22° 293° (WNW) 10:02:48 437.365/2234.400
QB50P1 04 Jul 09:58:42 10:00:56 14° 64° (ENE) 10:03:20 145.935-145.965
TIGRISAT 04 Jul 10:03:15 10:07:08 35° 71° (ENE) 10:11:02 435.000
PHONESAT 2.4 04 Jul 10:06:04 10:09:14 35° 163° (SSE) 10:12:26 2401.200-2431.200
SEEDS 04 Jul 10:06:20 10:10:33 59° 285° (WNW) 10:14:43 437.485
RS-15 04 Jul 10:10:06 10:21:03 46° 40° (NE) 10:32:33 29.354- 29.394
NANOSAT C BR1 04 Jul 10:12:11 10:15:11 20° 67° (ENE) 10:18:17 145.865
Cosmos 2499 04 Jul 10:14:07 10:19:58 30° 86° (E) 10:26:02 435.465 / 435.565
CUSAT 1 04 Jul 10:14:09 10:15:31 11° 294° (WNW) 10:16:27 437.405
AAUSAT CUBESAT 2 04 Jul 10:18:15 10:22:26 64° 285° (WNW) 10:26:35 437.432
DOVE 4 04 Jul 10:18:30 10:22:15 32° 290° (WNW) 10:25:55 437.250
HO-68 04 Jul 10:18:36 10:25:40 64° 291° (WNW) 10:32:42 435.675
DUCHIFAT 1 04 Jul 10:18:57 10:22:11 22° 68° (ENE) 10:25:31 145.980
CUBEBUG 2 04 Jul 10:19:27 10:23:34 55° 100° (E) 10:27:48 437.445
ZACube-1 04 Jul 10:23:14 10:27:08 36° 97° (E) 10:31:08 437.345
POLYITAN 1 04 Jul 10:23:21 10:26:51 26° 69° (ENE) 10:30:24 437.675
UKube-1 04 Jul 10:31:17 10:33:32 14° 90° (E) 10:35:59 .
Oscar 11 04 Jul 10:32:34 10:36:57 81° 102° (ESE) 10:41:18 145.826/435.025
DELFI C3 04 Jul 10:35:56 10:39:59 62° 100° (E) 10:44:01 145.870
BUGSAT 1 04 Jul 10:37:09 10:40:29 23° 68° (ENE) 10:43:52 437.445
AIST 2 04 Jul 10:41:23 10:43:42 14° 323° (NW) 10:45:54 435.215
UNISAT 6 04 Jul 10:42:23 10:46:41 83° 257° (WSW) 10:50:59 437.425
COMPASS 1 04 Jul 10:44:31 10:48:12 29° 290° (WNW) 10:51:50 437.405
50 SAT 04 Jul 10:44:48 10:46:28 13° 90° (E) 10:48:19 437.505
HUMSAT D 04 Jul 10:44:49 10:48:21 27° 95° (E) 10:51:58 437.325/437.525
AISAT 04 Jul 10:46:25 10:48:23 13° 89° (E) 10:50:34 437.250
QB50P2 04 Jul 10:52:22 10:56:30 54° 73° (ENE) 11:00:39 145.880/145.840
POPSAT HIP 1 04 Jul 10:53:11 10:57:18 53° 73° (ENE) 11:01:26 437.405
CUTE 1.7 + AOD 2 04 Jul 10:54:25 10:57:12 17° 295° (WNW) 10:59:50 437.475
CANX-2 04 Jul 10:58:08 11:00:28 14° 296° (WNW) 11:02:37 2200.000
FUNcube-1 04 Jul 10:59:20 11:03:33 89° 284° (WNW) 11:07:51 145.935
ISS 04 Jul 11:03:04 11:05:26 18° 351° (N) 11:07:49 145.825
CUBEBUG 1 04 Jul 11:05:57 11:07:02 11° 87° (E) 11:08:23 437.445
CINEMA 3 04 Jul 11:06:41 11:09:58 22° 292° (WNW) 11:13:11 145.822/145.860
UWE-3 04 Jul 11:11:15 11:15:19 49° 287° (WNW) 11:19:28 435.000/436.395/437.385
ESTCUBE 1 04 Jul 11:16:34 11:19:41 19° 91° (E) 11:22:55 437.505/2401.250
ANTELSAT 04 Jul 11:27:45 11:31:26 27° 265° (W) 11:35:02 437.575/2403.000
VERMONT LUNAR 04 Jul 11:30:09 11:33:08 41° 193° (SSW) 11:36:08 437.305
QB50P1 04 Jul 11:32:13 11:36:24 55° 260° (W) 11:40:34 145.935-145.965
VELOX 1 04 Jul 11:34:07 11:38:18 41° 98° (E) 11:42:28 145.980
TIGRISAT 04 Jul 11:40:45 11:44:01 20° 267° (W) 11:47:11 435.000
PHONESAT 2.4 04 Jul 11:43:37 11:47:02 60° 180° (S) 11:50:28 2401.200-2431.200
DX 1 04 Jul 11:44:25 11:48:48 83° 285° (WNW) 11:53:07 434.975-435.025
NANOSAT C BR1 04 Jul 11:46:48 11:50:47 38° 263° (W) 11:54:45 145.865
GONETS M04 04 Jul 11:49:00 11:54:49 18° 302° (WNW) 12:00:12
DUCHIFAT 1 04 Jul 11:54:00 11:57:51 33° 264° (W) 12:01:40 145.980
CUBEBUG 2 04 Jul 11:57:34 11:59:55 14° 295° (WNW) 12:02:06 437.445
POLYITAN 1 04 Jul 11:58:59 12:02:42 28° 265° (W) 12:06:21 437.675
ZACube-1 04 Jul 12:00:09 12:03:19 20° 293° (WNW) 12:06:25 437.345
Oscar 19 04 Jul 12:04:59 12:07:52 16° 61° (ENE) 12:10:56 437.125/150
UKube-1 04 Jul 12:05:49 12:10:03 53° 288° (WNW) 12:14:15 .
Cosmos 2499 04 Jul 12:06:05 12:12:51 47° 286° (WNW) 12:19:42 435.465 / 435.565
SPROUT 04 Jul 12:07:41 12:10:09 15° 90° (E) 12:12:47 437.525
HO-68 04 Jul 12:08:51 12:12:12 13° 310° (NW) 12:15:10 435.675
Oscar 11 04 Jul 12:11:20 12:12:33 11° 298° (WNW) 12:13:32 145.826/435.025
BUGSAT 1 04 Jul 12:12:01 12:15:50 31° 264° (W) 12:19:34 437.445
DELFI C3 04 Jul 12:12:51 12:14:37 12° 296° (WNW) 12:16:11 145.870
50 SAT 04 Jul 12:17:38 12:21:25 49° 287° (WNW) 12:25:12 437.505
HUMSAT D 04 Jul 12:20:32 12:24:02 26° 291° (WNW) 12:27:30 437.325/437.525
AISAT 04 Jul 12:21:05 12:25:26 59° 287° (WNW) 12:29:45 437.250
RS-15 04 Jul 12:22:40 12:34:14 65° 244° (WSW) 12:46:08 29.354- 29.394
QB50P2 04 Jul 12:30:32 12:32:47 14° 271° (W) 12:34:50 145.880/145.840
POPSAT HIP 1 04 Jul 12:31:16 12:33:33 14° 271° (W) 12:35:39 437.405
CUBEBUG 1 04 Jul 12:39:37 12:43:59 69° 285° (WNW) 12:48:16 437.445
ISS 04 Jul 12:40:15 12:42:41 19° 11° (N) 12:45:07 145.825
TISAT 1 04 Jul 12:49:18 12:52:54 28° 95° (E) 12:56:32 437.305
ESTCUBE 1 04 Jul 12:52:27 12:56:48 44° 289° (WNW) 13:01:06 437.505/2401.250
VERMONT LUNAR 04 Jul 13:07:52 13:09:37 14° 208° (SSW) 13:11:20 437.305
AO-7 04 Jul 13:10:12 13:11:18 10° 40° (NE) 13:12:52 29.400- 29.500
VELOX 1 04 Jul 13:11:20 13:14:37 20° 294° (WNW) 13:17:45 145.980
PHONESAT 2.4 04 Jul 13:21:36 13:24:51 39° 196° (SSW) 13:28:08 2401.200-2431.200
YUBILEINY 04 Jul 13:24:57 13:31:58 27° 64° (ENE) 13:39:15 435.215
SWISSCUBE 04 Jul 13:25:52 13:28:10 14° 88° (E) 13:30:43 437.505
ITUPSAT 1 04 Jul 13:31:02 13:33:25 14° 88° (E) 13:36:02 437.325
Oscar 19 04 Jul 13:41:34 13:46:41 73° 257° (WSW) 13:51:51 437.125/150
SPROUT 04 Jul 13:42:26 13:46:33 47° 287° (WNW) 13:50:39 437.525
Gurwin Techsat 1B 04 Jul 13:46:08 13:50:59 38° 69° (ENE) 13:55:55 435.225
Cosmos 2491 04 Jul 13:50:33 13:55:14 17° 78° (ENE) 14:00:28 435.465 / 435.565
ITAMSAT 1 04 Jul 13:53:00 13:57:53 43° 70° (ENE) 14:02:50 435.822/435.867
JAS-2 04 Jul 13:55:19 13:57:25 13° 57° (ENE) 13:59:50 435.910
ISS 04 Jul 14:16:22 14:19:34 58° 29° (NNE) 14:22:47 145.825
TISAT 1 04 Jul 14:25:07 14:28:36 25° 292° (WNW) 14:32:00 437.305
HORYU 2 04 Jul 14:27:54 14:29:38 12° 62° (ENE) 14:31:34 437.375
RS-15 04 Jul 14:39:00 14:44:50 14° 262° (W) 14:49:37 29.354- 29.394
PCSat 04 Jul 14:41:09 14:43:45 14° 105° (ESE) 14:46:39 145.827
BEESAT 04 Jul 14:46:08 14:50:59 81° 105° (ESE) 14:55:46 436.000
AO-7 04 Jul 14:54:24 15:02:03 43° 61° (ENE) 15:09:49 29.400- 29.500
PHONESAT 2.4 04 Jul 15:00:43 15:02:22 13° 210° (SSW) 15:03:55 2401.200-2431.200
SWISSCUBE 04 Jul 15:01:47 15:06:34 66° 287° (WNW) 15:11:20 437.505
ITUPSAT 1 04 Jul 15:07:03 15:11:51 66° 287° (WNW) 15:16:36 437.325
STARS 04 Jul 15:18:22 15:21:21 18° 92° (E) 15:24:28 437.465
YUBILEINY 04 Jul 15:20:59 15:29:42 70° 266° (W) 15:38:23 435.215
Gurwin Techsat 1B 04 Jul 15:26:29 15:31:05 28° 266° (W) 15:35:36 435.225
Cosmos 2504 04 Jul 15:29:03 15:33:18 16° 61° (ENE) 15:38:07 435.465 / 435.565
AIST 1 04 Jul 15:29:40 15:33:45 39° 92° (E) 15:37:54
ITAMSAT 1 04 Jul 15:33:17 15:37:35 25° 267° (W) 15:41:48 435.822/435.867
JAS-2 04 Jul 15:36:37 15:41:47 87° 256° (WSW) 15:47:14 435.910
